,,,PA_Meas_PMT16A,,PR_Meas_QMR101_102,,RH_Meas_QMH101,,SR_Meas_QMS101,,TA_Meas_QMH101,,GenWind,,GenWind,
date,time,status,PA,status,PR,status,RH,status,SR,status,TA,status,DirAvg,status,SpdAvg,
2008-12-18, 00:00:04,VALID,1003.65,VALID,0,VALID,88.762,VALID,0,VALID,25.0079,VALID,9,VALID,0.435156,
2008-12-18, 00:01:04,VALID,1003.64,VALID,0,VALID,89.0367,VALID,0,VALID,25.0079,VALID,9,VALID,0.478906,
2008-12-18, 00:02:04,VALID,1003.63,VALID,0,VALID,89.2426,VALID,0,VALID,24.9866,VALID,9,VALID,0.579297,
2008-12-18, 00:03:04,VALID,1003.62,VALID,0,VALID,89.3266,VALID,0,VALID,24.969,VALID,9,VALID,0.492969,
2008-12-18, 00:04:04,VALID,1003.59,VALID,0,VALID,89.38,VALID,0,VALID,24.969,VALID,9,VALID,0.402344,
2008-12-18, 00:05:04,VALID,1003.59,VALID,0,VALID,89.4105,VALID,0,VALID,24.9282,VALID,9,VALID,0.239453,
2008-12-18, 00:06:04,VALID,1003.57,VALID,0,VALID,89.1892,VALID,0,VALID,24.93,VALID,9,VALID,0.328516,
2008-12-18, 00:07:04,VALID,1003.57,VALID,0,VALID,89.1206,VALID,0,VALID,24.93,VALID,9,VALID,0.385938,
2008-12-18, 00:08:04,VALID,1003.54,VALID,0,VALID,88.9604,VALID,0,VALID,24.9106,VALID,9,VALID,0.392969,
2008-12-18, 00:09:04,VALID,1003.52,VALID,0,VALID,89.1587,VALID,0.100563,VALID,24.9106,VALID,9,VALID,0.445703,
2008-12-18, 00:10:04,VALID,1003.5,VALID,0,VALID,89.4715,VALID,0,VALID,24.9282,VALID,9,VALID,0.3875,
2008-12-18, 00:11:04,VALID,1003.48,VALID,0,VALID,89.5249,VALID,0,VALID,24.9495,VALID,9,VALID,0.342578,
2008-12-18, 00:12:04,VALID,1003.44,VALID,0,VALID,89.5554,VALID,0,VALID,24.9495,VALID,9,VALID,0.516016,
2008-12-18, 00:13:04,VALID,1003.44,VALID,0,VALID,89.6012,VALID,0,VALID,24.9495,VALID,9,VALID,0.706641,
2008-12-18, 00:14:04,VALID,1003.37,VALID,0,VALID,89.6012,VALID,0.100563,VALID,24.9476,VALID,9,VALID,0.639063,
2008-12-18, 00:15:04,VALID,1003.37,VALID,0,VALID,89.4334,VALID,0,VALID,24.93,VALID,9,VALID,0.491016,
2008-12-18, 00:16:04,VALID,1003.36,VALID,0,VALID,89.2198,VALID,0,VALID,24.9282,VALID,4,VALID,0.540625,
2008-12-18, 00:17:04,VALID,1003.33,VALID,0,VALID,89.0824,VALID,0,VALID,24.9087,VALID,4,VALID,0.485156,
2008-12-18, 00:18:04,VALID,1003.31,VALID,0,VALID,89.0367,VALID,0,VALID,24.93,VALID,4,VALID,0.399609,
2008-12-18, 00:19:04,VALID,1003.28,VALID,0,VALID,89.3952,VALID,0,VALID,24.9495,VALID,4,VALID,0.462891,
2008-12-18, 00:20:04,VALID,1003.27,VALID,0,VALID,89.4105,VALID,0,VALID,24.9476,VALID,4,VALID,0.618359,
2008-12-18, 00:21:04,VALID,1003.22,VALID,0,VALID,89.2884,VALID,0,VALID,24.9476,VALID,3,VALID,0.483594,
2008-12-18, 00:22:04,VALID,1003.23,VALID,0,VALID,89.3876,VALID,0,VALID,24.969,VALID,3,VALID,0.375391,
2008-12-18, 00:23:04,VALID,1003.2,VALID,0,VALID,89.38,VALID,0.100563,VALID,24.9671,VALID,3,VALID,0.387891,
2008-12-18, 00:24:04,VALID,1003.16,VALID,0,VALID,89.4639,VALID,0.100563,VALID,24.9476,VALID,3,VALID,0.314063,
2008-12-18, 00:25:04,VALID,1003.18,VALID,0,VALID,89.3266,VALID,0,VALID,24.969,VALID,3,VALID,0.383984,
2008-12-18, 00:26:04,VALID,1003.14,VALID,0,VALID,89.1206,VALID,0,VALID,24.9709,VALID,3,VALID,0.29375,
2008-12-18, 00:27:04,VALID,1003.13,VALID,0,VALID,89.296,VALID,0,VALID,24.9904,VALID,3,VALID,0.392969,
2008-12-18, 00:28:04,VALID,1003.13,VALID,0,VALID,89.5631,VALID,0,VALID,24.9885,VALID,3,VALID,0.4375,
2008-12-18, 00:29:04,VALID,1003.13,VALID,0,VALID,89.5707,VALID,0,VALID,25.0098,VALID,3,VALID,0.291797,
2008-12-18, 00:30:04,VALID,1003.14,VALID,0,VALID,89.4715,VALID,0,VALID,25.0488,VALID,3,VALID,0.392578,
2008-12-18, 00:31:04,VALID,1003.09,VALID,0,VALID,89.3418,VALID,0,VALID,25.0274,VALID,3,VALID,0.241797,
2008-12-18, 00:32:04,VALID,1003.14,VALID,0,VALID,89.3113,VALID,0,VALID,25.0682,VALID,3,VALID,0,
2008-12-18, 00:33:04,VALID,1003.1,VALID,0,VALID,89.3876,VALID,0,VALID,25.0682,VALID,3,VALID,0,
2008-12-18, 00:34:04,VALID,1003.09,VALID,0,VALID,89.3952,VALID,0,VALID,25.1072,VALID,3,VALID,0.00195313,
2008-12-18, 00:35:04,VALID,1003.09,VALID,0,VALID,89.5478,VALID,0,VALID,25.1248,VALID,3,VALID,0.311328,
2008-12-18, 00:36:04,VALID,1003.09,VALID,0,VALID,89.0367,VALID,0,VALID,25.1461,VALID,3,VALID,0.429297,
2008-12-18, 00:37:04,VALID,1003.07,VALID,0,VALID,89.029,VALID,0,VALID,25.1656,VALID,3,VALID,0.453125,
2008-12-18, 00:38:04,VALID,1003.08,VALID,0,VALID,88.9909,VALID,0,VALID,25.1656,VALID,360,VALID,0.508203,
2008-12-18, 00:39:04,VALID,1003.09,VALID,0,VALID,89.0519,VALID,0,VALID,25.1851,VALID,360,VALID,0.551953,
2008-12-18, 00:40:04,VALID,1003.09,VALID,0,VALID,89.1358,VALID,0.100563,VALID,25.1618,VALID,360,VALID,0.4875,
2008-12-18, 00:41:04,VALID,1003.08,VALID,0,VALID,89.0595,VALID,0.100563,VALID,25.1637,VALID,355,VALID,0.670313,
2008-12-18, 00:42:04,VALID,1003.05,VALID,0,VALID,89.1664,VALID,0,VALID,25.1442,VALID,351,VALID,0.278906,
2008-12-18, 00:43:04,VALID,1003.06,VALID,0,VALID,88.8307,VALID,0.100563,VALID,25.1229,VALID,351,VALID,0.167969,
2008-12-18, 00:44:04,VALID,1003.07,VALID,0,VALID,88.8612,VALID,0,VALID,25.1637,VALID,351,VALID,0.115234,
2008-12-18, 00:45:04,VALID,1003.03,VALID,0,VALID,88.9146,VALID,0,VALID,25.1618,VALID,351,VALID,0,
2008-12-18, 00:46:04,VALID,1003.02,VALID,0,VALID,88.7849,VALID,0,VALID,25.2027,VALID,351,VALID,0.346094,
2008-12-18, 00:47:04,VALID,1003,VALID,0,VALID,88.4264,VALID,0,VALID,25.2221,VALID,351,VALID,0.11875,
2008-12-18, 00:48:04,VALID,1002.99,VALID,0,VALID,88.0296,VALID,0,VALID,25.2221,VALID,351,VALID,0,
2008-12-18, 00:49:04,VALID,1002.98,VALID,0,VALID,87.9839,VALID,0,VALID,25.2806,VALID,351,VALID,0.250391,
2008-12-18, 00:50:04,VALID,1002.96,VALID,0,VALID,87.2362,VALID,0.100563,VALID,25.2806,VALID,352,VALID,0.816797,
2008-12-18, 00:51:04,VALID,1002.95,VALID,0,VALID,87.1066,VALID,0,VALID,25.3176,VALID,346,VALID,0.674609,
2008-12-18, 00:52:04,VALID,1002.92,VALID,0,VALID,86.5802,VALID,0,VALID,25.3584,VALID,348,VALID,0.825781,
2008-12-18, 00:53:04,VALID,1002.91,VALID,0,VALID,86.5649,VALID,0,VALID,25.4169,VALID,343,VALID,0.0410156,
2008-12-18, 00:54:04,VALID,1002.9,VALID,0,VALID,85.8859,VALID,0,VALID,25.4149,VALID,352,VALID,0.689062,
2008-12-18, 00:55:04,VALID,1002.92,VALID,0,VALID,85.9317,VALID,0,VALID,25.4558,VALID,304,VALID,0.299609,
2008-12-18, 00:56:04,VALID,1002.87,VALID,0,VALID,85.1383,VALID,0,VALID,25.4753,VALID,277,VALID,0.273828,
2008-12-18, 00:57:04,VALID,1002.87,VALID,0,VALID,84.856,VALID,0,VALID,25.5532,VALID,292,VALID,0.412891,
2008-12-18, 00:58:04,VALID,1002.87,VALID,0,VALID,84.3602,VALID,0,VALID,25.5921,VALID,358,VALID,0.651172,
2008-12-18, 00:59:04,VALID,1002.85,VALID,0,VALID,84.2152,VALID,0,VALID,25.6116,VALID,343,VALID,0.779297,
2008-12-18, 01:00:04,VALID,1002.86,VALID,0,VALID,83.9024,VALID,0,VALID,25.6292,VALID,348,VALID,0.796094,
2008-12-18, 01:01:04,VALID,1002.86,VALID,0,VALID,84.116,VALID,0,VALID,25.67,VALID,355,VALID,0.657031,
2008-12-18, 01:02:04,VALID,1002.81,VALID,0,VALID,84.0321,VALID,0,VALID,25.6506,VALID,350,VALID,0.727344,
2008-12-18, 01:03:04,VALID,1002.83,VALID,0,VALID,84.1542,VALID,0.100563,VALID,25.6097,VALID,349,VALID,0.625391,
2008-12-18, 01:04:04,VALID,1002.78,VALID,0,VALID,84.3602,VALID,0,VALID,25.6311,VALID,350,VALID,0.645312,
2008-12-18, 01:05:04,VALID,1002.77,VALID,0,VALID,84.2305,VALID,0.100563,VALID,25.5902,VALID,350,VALID,0.65625,
2008-12-18, 01:06:04,VALID,1002.7,VALID,0,VALID,84.3296,VALID,0,VALID,25.6116,VALID,351,VALID,0.800391,
2008-12-18, 01:07:04,VALID,1002.7,VALID,0,VALID,84.7263,VALID,0,VALID,25.5902,VALID,350,VALID,0.647656,
2008-12-18, 01:08:04,VALID,1002.68,VALID,0,VALID,84.4212,VALID,0,VALID,25.5707,VALID,352,VALID,0.792578,
2008-12-18, 01:09:04,VALID,1002.67,VALID,0,VALID,84.856,VALID,0,VALID,25.5513,VALID,335,VALID,0.609766,
2008-12-18, 01:10:04,VALID,1002.66,VALID,0,VALID,84.9857,VALID,0,VALID,25.5727,VALID,344,VALID,0.721094,
2008-12-18, 01:11:04,VALID,1002.64,VALID,0,VALID,84.9247,VALID,0,VALID,25.5337,VALID,357,VALID,0.733203,
2008-12-18, 01:12:04,VALID,1002.63,VALID,0,VALID,84.7797,VALID,0,VALID,25.5337,VALID,357,VALID,0.757031,
2008-12-18, 01:13:04,VALID,1002.64,VALID,0,VALID,85.1307,VALID,0,VALID,25.5337,VALID,350,VALID,0.689062,
2008-12-18, 01:14:04,VALID,1002.64,VALID,0,VALID,84.94,VALID,0,VALID,25.5337,VALID,344,VALID,0.604297,
2008-12-18, 01:15:04,VALID,1002.62,VALID,0,VALID,84.795,VALID,0,VALID,25.5337,VALID,340,VALID,0.773828,
2008-12-18, 01:16:04,VALID,1002.59,VALID,0,VALID,85.0773,VALID,0,VALID,25.5337,VALID,340,VALID,0.447656,
2008-12-18, 01:17:04,VALID,1002.59,VALID,0,VALID,85.0391,VALID,0,VALID,25.5337,VALID,340,VALID,0.143359,
2008-12-18, 01:18:04,VALID,1002.57,VALID,0,VALID,85.3901,VALID,0.100563,VALID,25.5337,VALID,341,VALID,0.533984,
2008-12-18, 01:19:04,VALID,1002.56,VALID,0,VALID,86.2598,VALID,0,VALID,25.5142,VALID,341,VALID,0.344141,
2008-12-18, 01:20:04,VALID,1002.54,VALID,0,VALID,85.596,VALID,0.100563,VALID,25.4344,VALID,341,VALID,0.45625,
2008-12-18, 01:21:04,VALID,1002.52,VALID,0,VALID,86.0919,VALID,0,VALID,25.4363,VALID,341,VALID,0.382031,
2008-12-18, 01:22:04,VALID,1002.5,VALID,0,VALID,86.6946,VALID,0,VALID,25.3974,VALID,341,VALID,0.188281,
2008-12-18, 01:23:04,VALID,1002.49,VALID,0,VALID,86.214,VALID,0,VALID,25.3584,VALID,341,VALID,0.327344,
2008-12-18, 01:24:04,VALID,1002.46,VALID,0,VALID,86.4962,VALID,0,VALID,25.2981,VALID,341,VALID,0.487109,
2008-12-18, 01:25:04,VALID,1002.44,VALID,0,VALID,87.3583,VALID,0,VALID,25.339,VALID,341,VALID,0.410937,
2008-12-18, 01:26:04,VALID,1002.42,VALID,0,VALID,87.7474,VALID,0,VALID,25.2806,VALID,341,VALID,0.414453,
2008-12-18, 01:27:04,VALID,1002.4,VALID,0,VALID,87.8771,VALID,0,VALID,25.2202,VALID,346,VALID,0.5875,
2008-12-18, 01:28:04,VALID,1002.37,VALID,0,VALID,88.0525,VALID,0,VALID,25.1618,VALID,347,VALID,0.405078,
2008-12-18, 01:29:04,VALID,1002.38,VALID,0,VALID,87.9915,VALID,0,VALID,25.1229,VALID,347,VALID,0.353906,
2008-12-18, 01:30:04,VALID,1002.33,VALID,0,VALID,88.0144,VALID,0,VALID,25.0858,VALID,347,VALID,0.301953,
2008-12-18, 01:31:04,VALID,1002.34,VALID,0,VALID,88.4035,VALID,0.100563,VALID,25.045,VALID,349,VALID,0.4125,
2008-12-18, 01:32:04,VALID,1002.32,VALID,0,VALID,88.8612,VALID,0,VALID,25.0255,VALID,349,VALID,0.326172,
2008-12-18, 01:33:04,VALID,1002.31,VALID,0,VALID,89.1587,VALID,0,VALID,24.9885,VALID,349,VALID,0.228906,
2008-12-18, 01:34:04,VALID,1002.31,VALID,0,VALID,89.0748,VALID,0,VALID,24.9282,VALID,349,VALID,0.463672,
2008-12-18, 01:35:04,VALID,1002.31,VALID,0,VALID,89.2198,VALID,0,VALID,24.93,VALID,349,VALID,0.410156,
2008-12-18, 01:36:04,VALID,1002.28,VALID,0,VALID,89.2274,VALID,0.100563,VALID,24.8503,VALID,349,VALID,0.329688,
2008-12-18, 01:37:04,VALID,1002.25,VALID,0,VALID,89.0367,VALID,0,VALID,24.8503,VALID,349,VALID,0.025,
2008-12-18, 01:38:04,VALID,1002.25,VALID,0,VALID,89.0519,VALID,0,VALID,24.8716,VALID,349,VALID,0.00273437,
2008-12-18, 01:39:04,VALID,1002.24,VALID,0,VALID,89.1816,VALID,0,VALID,24.9125,VALID,349,VALID,0.185547,
2008-12-18, 01:40:04,VALID,1002.24,VALID,0,VALID,89.3876,VALID,0,VALID,24.93,VALID,349,VALID,0.239453,
2008-12-18, 01:41:04,VALID,1002.2,VALID,0,VALID,89.502,VALID,0,VALID,24.9106,VALID,349,VALID,0.303516,
2008-12-18, 01:42:04,VALID,1002.18,VALID,0,VALID,89.6012,VALID,0,VALID,24.8716,VALID,349,VALID,0.45625,
2008-12-18, 01:43:04,VALID,1002.2,VALID,0,VALID,89.7919,VALID,0,VALID,24.8327,VALID,358,VALID,0.470703,
2008-12-18, 01:44:04,VALID,1002.16,VALID,0,VALID,89.7919,VALID,0,VALID,24.7743,VALID,358,VALID,0.597656,
2008-12-18, 01:45:04,VALID,1002.14,VALID,0,VALID,90.1123,VALID,0,VALID,24.7353,VALID,358,VALID,0.376172,
2008-12-18, 01:46:04,VALID,1002.15,VALID,0,VALID,90.2497,VALID,0,VALID,24.7159,VALID,358,VALID,0.136719,
2008-12-18, 01:47:04,VALID,1002.15,VALID,0,VALID,90.2802,VALID,0,VALID,24.6964,VALID,358,VALID,0.302344,
2008-12-18, 01:48:04,VALID,1002.1,VALID,0,VALID,90.2725,VALID,0,VALID,24.675,VALID,358,VALID,0.249219,
2008-12-18, 01:49:04,VALID,1002.13,VALID,0,VALID,90.4251,VALID,0,VALID,24.6574,VALID,358,VALID,0.310547,
2008-12-18, 01:50:04,VALID,1002.11,VALID,0,VALID,90.4556,VALID,0,VALID,24.6556,VALID,358,VALID,0.242578,
2008-12-18, 01:51:04,VALID,1002.13,VALID,0,VALID,90.4022,VALID,0,VALID,24.6361,VALID,358,VALID,0.371875,
2008-12-18, 01:52:04,VALID,1002.11,VALID,0,VALID,90.4175,VALID,0.100563,VALID,24.5972,VALID,358,VALID,0.205859,
2008-12-18, 01:53:04,VALID,1002.14,VALID,0,VALID,90.4938,VALID,0,VALID,24.5972,VALID,358,VALID,0,
2008-12-18, 01:54:04,VALID,1002.12,VALID,0,VALID,90.5472,VALID,0,VALID,24.599,VALID,358,VALID,0,
2008-12-18, 01:55:04,VALID,1002.12,VALID,0,VALID,90.5548,VALID,0,VALID,24.6185,VALID,358,VALID,0.227734,
2008-12-18, 01:56:04,VALID,1002.11,VALID,0,VALID,90.654,VALID,0.100563,VALID,24.5972,VALID,358,VALID,0.366797,
2008-12-18, 01:57:04,VALID,1002.09,VALID,0,VALID,90.776,VALID,0,VALID,24.5582,VALID,358,VALID,0.530469,
2008-12-18, 01:58:04,VALID,1002.05,VALID,0,VALID,90.8981,VALID,0,VALID,24.5582,VALID,358,VALID,0.622656,
2008-12-18, 01:59:04,VALID,1002.05,VALID,0,VALID,90.921,VALID,0,VALID,24.5388,VALID,358,VALID,0.512109,
2008-12-18, 02:00:04,VALID,1002.04,VALID,0,VALID,91.0354,VALID,0.100563,VALID,24.5406,VALID,358,VALID,0.405859,
2008-12-18, 02:01:04,VALID,1002.05,VALID,0,VALID,91.0965,VALID,0.100563,VALID,24.5406,VALID,358,VALID,0.413281,
2008-12-18, 02:02:04,VALID,1002.03,VALID,0,VALID,91.1804,VALID,0,VALID,24.4998,VALID,358,VALID,0.572656,
2008-12-18, 02:03:04,VALID,1002.01,VALID,0,VALID,91.2643,VALID,0,VALID,24.4804,VALID,9,VALID,0.643359,
2008-12-18, 02:04:04,VALID,1002.01,VALID,0,VALID,91.3711,VALID,0.100563,VALID,24.4609,VALID,9,VALID,0.485156,
2008-12-18, 02:05:04,VALID,1001.99,VALID,0,VALID,91.4703,VALID,0.100563,VALID,24.4414,VALID,9,VALID,0.390234,
2008-12-18, 02:06:04,VALID,1001.99,VALID,0,VALID,91.5161,VALID,0,VALID,24.4433,VALID,9,VALID,0.271875,
2008-12-18, 02:07:04,VALID,1001.98,VALID,0,VALID,91.6076,VALID,0,VALID,24.422,VALID,9,VALID,0.283203,
2008-12-18, 02:08:04,VALID,1001.98,VALID,0,VALID,91.4855,VALID,0.100563,VALID,24.422,VALID,9,VALID,0.162891,
2008-12-18, 02:09:04,VALID,1001.95,VALID,0,VALID,91.5008,VALID,0,VALID,24.4043,VALID,9,VALID,0.291406,
2008-12-18, 02:10:04,VALID,1001.94,VALID,0,VALID,91.5923,VALID,0,VALID,24.4025,VALID,9,VALID,0.374609,
2008-12-18, 02:11:04,VALID,1001.95,VALID,0,VALID,91.5923,VALID,0,VALID,24.4025,VALID,9,VALID,0.346484,
2008-12-18, 02:12:04,VALID,1001.95,VALID,0,VALID,91.5695,VALID,0.100563,VALID,24.383,VALID,9,VALID,0.409375,
2008-12-18, 02:13:04,VALID,1001.99,VALID,0,VALID,91.661,VALID,0,VALID,24.4025,VALID,9,VALID,0.377734,
2008-12-18, 02:14:04,VALID,1002.01,VALID,0,VALID,91.6915,VALID,0.100563,VALID,24.3812,VALID,9,VALID,0.395312,
2008-12-18, 02:15:04,VALID,1002.02,VALID,0,VALID,91.5618,VALID,0.100563,VALID,24.383,VALID,9,VALID,0.458984,
2008-12-18, 02:16:04,VALID,1002.02,VALID,0,VALID,91.6229,VALID,0.100563,VALID,24.3849,VALID,9,VALID,0.246094,
2008-12-18, 02:17:04,VALID,1002.04,VALID,0,VALID,91.6229,VALID,0.100563,VALID,24.383,VALID,9,VALID,0.433594,
2008-12-18, 02:18:04,VALID,1002.04,VALID,0,VALID,91.6839,VALID,0.100563,VALID,24.3636,VALID,9,VALID,0.261719,
2008-12-18, 02:19:04,VALID,1002.06,VALID,0,VALID,91.6457,VALID,0.100563,VALID,24.3636,VALID,9,VALID,0.451172,
2008-12-18, 02:20:04,VALID,1002.07,VALID,0,VALID,91.5695,VALID,0.100563,VALID,24.3441,VALID,9,VALID,0.436328,
2008-12-18, 02:21:04,VALID,1002.07,VALID,0,VALID,91.6686,VALID,0.100563,VALID,24.3441,VALID,8,VALID,0.363672,
2008-12-18, 02:22:04,VALID,1002.1,VALID,0,VALID,91.5542,VALID,0,VALID,24.3654,VALID,8,VALID,0.394922,
2008-12-18, 02:23:04,VALID,1002.12,VALID,0,VALID,91.6839,VALID,0,VALID,24.3849,VALID,8,VALID,0.407813,
2008-12-18, 02:24:04,VALID,1002.13,VALID,0,VALID,91.6686,VALID,0,VALID,24.3636,VALID,8,VALID,0.531641,
2008-12-18, 02:25:04,VALID,1002.14,VALID,0,VALID,91.6686,VALID,0,VALID,24.3849,VALID,8,VALID,0.503516,
2008-12-18, 02:26:04,VALID,1002.13,VALID,0,VALID,91.7831,VALID,0,VALID,24.3849,VALID,8,VALID,0.396875,
2008-12-18, 02:27:04,VALID,1002.15,VALID,0,VALID,91.8365,VALID,0.100563,VALID,24.3636,VALID,8,VALID,0.372266,
2008-12-18, 02:28:04,VALID,1002.13,VALID,0,VALID,91.8822,VALID,0.100563,VALID,24.3636,VALID,8,VALID,0.426562,
2008-12-18, 02:29:04,VALID,1002.14,VALID,0,VALID,91.8975,VALID,0,VALID,24.3441,VALID,8,VALID,0.348047,
2008-12-18, 02:30:04,VALID,1002.13,VALID,0,VALID,91.8365,VALID,0,VALID,24.3441,VALID,4,VALID,0.492578,
2008-12-18, 02:31:04,VALID,1002.1,VALID,0,VALID,91.7449,VALID,0,VALID,24.3441,VALID,4,VALID,0.449609,
2008-12-18, 02:32:04,VALID,1002.09,VALID,0,VALID,91.5237,VALID,0,VALID,24.3459,VALID,3,VALID,0.363281,
2008-12-18, 02:33:04,VALID,1002.07,VALID,0,VALID,91.3482,VALID,0.100563,VALID,24.3636,VALID,1,VALID,0.558594,
2008-12-18, 02:34:04,VALID,1002.05,VALID,0,VALID,91.2948,VALID,0.100563,VALID,24.4025,VALID,356,VALID,0.6625,
2008-12-18, 02:35:04,VALID,1002.02,VALID,0,VALID,91.2414,VALID,0,VALID,24.4025,VALID,357,VALID,0.509375,
2008-12-18, 02:36:04,VALID,1002,VALID,0,VALID,91.1728,VALID,0.100563,VALID,24.4006,VALID,348,VALID,0.656641,
2008-12-18, 02:37:04,VALID,1001.98,VALID,0,VALID,91.1041,VALID,0.100563,VALID,24.4609,VALID,350,VALID,0.43125,
2008-12-18, 02:38:04,VALID,1001.95,VALID,0,VALID,90.8295,VALID,0.100563,VALID,24.4998,VALID,346,VALID,0.740234,
2008-12-18, 02:39:04,VALID,1001.9,VALID,0,VALID,90.593,VALID,0.100563,VALID,24.5582,VALID,347,VALID,0.553516,
2008-12-18, 02:40:04,VALID,1001.9,VALID,0,VALID,90.2649,VALID,0,VALID,24.6185,VALID,350,VALID,0.298047,
2008-12-18, 02:41:04,VALID,1001.86,VALID,0,VALID,89.9445,VALID,0,VALID,24.6769,VALID,350,VALID,0.289063,
2008-12-18, 02:42:04,VALID,1001.85,VALID,0,VALID,89.7843,VALID,0,VALID,24.7353,VALID,350,VALID,0.235938,
2008-12-18, 02:43:04,VALID,1001.83,VALID,0,VALID,89.5707,VALID,0,VALID,24.7743,VALID,350,VALID,0.205078,
2008-12-18, 02:44:04,VALID,1001.84,VALID,0,VALID,89.3189,VALID,0,VALID,24.8132,VALID,350,VALID,0.529688,
2008-12-18, 02:45:04,VALID,1001.84,VALID,0,VALID,89.1511,VALID,0,VALID,24.8522,VALID,342,VALID,0.571875,
2008-12-18, 02:46:04,VALID,1001.85,VALID,0,VALID,89.1282,VALID,0,VALID,24.8522,VALID,343,VALID,0.483984,
2008-12-18, 02:47:04,VALID,1001.86,VALID,0,VALID,88.9375,VALID,0,VALID,24.8522,VALID,325,VALID,0.676172,
2008-12-18, 02:48:04,VALID,1001.85,VALID,0,VALID,88.5942,VALID,0,VALID,24.8716,VALID,340,VALID,0.377344,
2008-12-18, 02:49:04,VALID,1001.82,VALID,0,VALID,88.4492,VALID,0,VALID,24.93,VALID,342,VALID,0.38125,
2008-12-18, 02:50:04,VALID,1001.85,VALID,0,VALID,88.2967,VALID,0,VALID,24.93,VALID,348,VALID,0.371875,
2008-12-18, 02:51:04,VALID,1001.82,VALID,0,VALID,88.1822,VALID,0,VALID,24.9495,VALID,347,VALID,0.311719,
2008-12-18, 02:52:04,VALID,1001.8,VALID,0,VALID,88.0602,VALID,0,VALID,24.9885,VALID,346,VALID,0.330859,
2008-12-18, 02:53:04,VALID,1001.78,VALID,0,VALID,88.0907,VALID,0,VALID,24.9885,VALID,346,VALID,0.262109,
2008-12-18, 02:54:04,VALID,1001.78,VALID,0,VALID,88.1517,VALID,0,VALID,24.969,VALID,346,VALID,0.30625,
2008-12-18, 02:55:04,VALID,1001.75,VALID,0,VALID,88.4645,VALID,0,VALID,24.9495,VALID,347,VALID,0.448047,
2008-12-18, 02:56:04,VALID,1001.75,VALID,0,VALID,88.6247,VALID,0,VALID,24.9106,VALID,346,VALID,0.380078,
2008-12-18, 02:57:04,VALID,1001.75,VALID,0,VALID,88.7315,VALID,0,VALID,24.8716,VALID,346,VALID,0.422656,
2008-12-18, 02:58:04,VALID,1001.76,VALID,0,VALID,88.7849,VALID,0,VALID,24.8735,VALID,346,VALID,0.314453,
2008-12-18, 02:59:04,VALID,1001.75,VALID,0,VALID,88.9527,VALID,0,VALID,24.8132,VALID,347,VALID,0.351172,
2008-12-18, 03:00:04,VALID,1001.72,VALID,0,VALID,89.0672,VALID,0,VALID,24.7937,VALID,347,VALID,0.351953,
2008-12-18, 03:01:04,VALID,1001.73,VALID,0,VALID,89.235,VALID,0,VALID,24.7956,VALID,346,VALID,0.267969,
2008-12-18, 03:02:04,VALID,1001.72,VALID,0,VALID,89.4028,VALID,0,VALID,24.7743,VALID,346,VALID,0.396484,
2008-12-18, 03:03:04,VALID,1001.68,VALID,0,VALID,89.5249,VALID,0,VALID,24.7548,VALID,346,VALID,0.0953125,
2008-12-18, 03:04:04,VALID,1001.66,VALID,0,VALID,89.5097,VALID,0,VALID,24.7353,VALID,346,VALID,0.239063,
2008-12-18, 03:05:04,VALID,1001.69,VALID,0,VALID,89.5554,VALID,0,VALID,24.7353,VALID,347,VALID,0.326562,
2008-12-18, 03:06:04,VALID,1001.65,VALID,0,VALID,89.5249,VALID,0,VALID,24.7353,VALID,347,VALID,0.0132813,
2008-12-18, 03:07:04,VALID,1001.66,VALID,0,VALID,89.2579,VALID,0,VALID,24.7743,VALID,349,VALID,0.68125,
2008-12-18, 03:08:04,VALID,1001.69,VALID,0,VALID,89.0977,VALID,0,VALID,24.8132,VALID,350,VALID,0.190234,
2008-12-18, 03:09:04,VALID,1001.68,VALID,0,VALID,88.7925,VALID,0,VALID,24.8522,VALID,340,VALID,0.566016,
2008-12-18, 03:10:04,VALID,1001.68,VALID,0,VALID,88.6628,VALID,0,VALID,24.9125,VALID,349,VALID,0.492188,
2008-12-18, 03:11:04,VALID,1001.71,VALID,0,VALID,88.4645,VALID,0,VALID,24.93,VALID,348,VALID,0.516406,
2008-12-18, 03:12:04,VALID,1001.72,VALID,0,VALID,88.4111,VALID,0,VALID,24.9495,VALID,300,VALID,0.266016,
2008-12-18, 03:13:04,VALID,1001.71,VALID,0,VALID,88.5026,VALID,0,VALID,24.9495,VALID,300,VALID,0.0179687,
2008-12-18, 03:14:04,VALID,1001.7,VALID,0,VALID,88.434,VALID,0,VALID,24.969,VALID,333,VALID,0.229687,
2008-12-18, 03:15:04,VALID,1001.73,VALID,0,VALID,88.2051,VALID,0,VALID,24.969,VALID,341,VALID,0.229297,
2008-12-18, 03:16:04,VALID,1001.72,VALID,0,VALID,88.1441,VALID,0,VALID,25.0293,VALID,343,VALID,0.174609,
2008-12-18, 03:17:04,VALID,1001.72,VALID,0,VALID,88.0068,VALID,0,VALID,25.0682,VALID,5,VALID,0.555469,
2008-12-18, 03:18:04,VALID,1001.73,VALID,0,VALID,87.7855,VALID,0,VALID,25.0663,VALID,342,VALID,0.693359,
2008-12-18, 03:19:04,VALID,1001.71,VALID,0,VALID,87.6329,VALID,0,VALID,25.1053,VALID,343,VALID,0.271484,
2008-12-18, 03:20:04,VALID,1001.75,VALID,0,VALID,87.6253,VALID,0,VALID,25.1248,VALID,320,VALID,0.159375,
2008-12-18, 03:21:04,VALID,1001.74,VALID,0,VALID,87.5185,VALID,0,VALID,25.1656,VALID,329,VALID,0.391016,
2008-12-18, 03:22:04,VALID,1001.78,VALID,0,VALID,87.5033,VALID,0,VALID,25.1851,VALID,356,VALID,0.169531,
2008-12-18, 03:23:04,VALID,1001.81,VALID,0,VALID,87.5033,VALID,0,VALID,25.1637,VALID,354,VALID,0.226172,
2008-12-18, 03:24:04,VALID,1001.81,VALID,0,VALID,87.2286,VALID,0,VALID,25.1637,VALID,347,VALID,1.01289,
2008-12-18, 03:25:04,VALID,1001.84,VALID,0,VALID,87.0379,VALID,0,VALID,25.2221,VALID,354,VALID,0.610937,
2008-12-18, 03:26:04,VALID,1001.82,VALID,0,VALID,86.7022,VALID,0,VALID,25.2825,VALID,348,VALID,1.32734,
2008-12-18, 03:27:04,VALID,1001.82,VALID,0,VALID,86.4047,VALID,0,VALID,25.3195,VALID,298,VALID,0.965234,
2008-12-18, 03:28:04,VALID,1001.81,VALID,0,VALID,86.2064,VALID,0,VALID,25.3779,VALID,349,VALID,0.66875,
2008-12-18, 03:29:04,VALID,1001.83,VALID,0,VALID,86.0995,VALID,0,VALID,25.3955,VALID,339,VALID,0.873047,
2008-12-18, 03:30:04,VALID,1001.8,VALID,0,VALID,85.9393,VALID,0,VALID,25.4383,VALID,351,VALID,1.10352,
2008-12-18, 03:31:04,VALID,1001.8,VALID,0,VALID,85.947,VALID,0,VALID,25.4363,VALID,359,VALID,0.992578,
2008-12-18, 03:32:04,VALID,1001.75,VALID,0,VALID,85.8173,VALID,0,VALID,25.4772,VALID,354,VALID,0.988281,
2008-12-18, 03:33:04,VALID,1001.75,VALID,0,VALID,85.7562,VALID,0,VALID,25.4772,VALID,335,VALID,1.35078,
2008-12-18, 03:34:04,VALID,1001.77,VALID,0,VALID,85.8402,VALID,0,VALID,25.4772,VALID,345,VALID,0.7375,
2008-12-18, 03:35:04,VALID,1001.78,VALID,0,VALID,85.8478,VALID,0,VALID,25.4753,VALID,320,VALID,0.549609,
2008-12-18, 03:36:04,VALID,1001.76,VALID,0,VALID,85.9241,VALID,0,VALID,25.4753,VALID,344,VALID,0.334375,
2008-12-18, 03:37:04,VALID,1001.73,VALID,0,VALID,85.8783,VALID,0,VALID,25.4558,VALID,333,VALID,0.834766,
2008-12-18, 03:38:04,VALID,1001.76,VALID,0,VALID,85.8478,VALID,0,VALID,25.4558,VALID,331,VALID,0.842188,
2008-12-18, 03:39:04,VALID,1001.74,VALID,0,VALID,85.9393,VALID,0,VALID,25.4967,VALID,318,VALID,0.985937,
2008-12-18, 03:40:04,VALID,1001.75,VALID,0,VALID,86.0233,VALID,0,VALID,25.4967,VALID,344,VALID,0.924219,
2008-12-18, 03:41:04,VALID,1001.72,VALID,0,VALID,86.1453,VALID,0,VALID,25.4558,VALID,354,VALID,1.33555,
2008-12-18, 03:42:04,VALID,1001.72,VALID,0,VALID,86.2064,VALID,0,VALID,25.4772,VALID,322,VALID,0.363281,
2008-12-18, 03:43:04,VALID,1001.7,VALID,0,VALID,86.275,VALID,0,VALID,25.4363,VALID,356,VALID,0.914844,